Regional Weather Roundup
Issued by NWS

Home | Current Version | Previous Version | Graphics & Text | Print | Product List | Glossary On
Versions: 1 2 3 4 5 6 7 8 9 10 11 12 13 14 15 16 17 18 19 20 21 22 23 24 25 26 27 28 29 30 31 32 33 34 35 36 37 38 39 40 41 42 43 44 45 46 47 48 49 50
000
ASUS43 KOAX 310310
RWRNE

WEATHER ROUNDUP FOR NEBRASKA
NATIONAL WEATHER SERVICE OMAHA NE
1000 PM CDT THU OCT 30 2014

NOTES: SATELLITE DATA IS BEING USED TO AUGMENT CLOUD COVER ABOVE
       12000 FEET.
       "FAIR" INDICATES FEW OR NO CLOUDS BELOW 12,000 FEET WITH NO
       SIGNIFICANT WEATHER AND/OR OBSTRUCTIONS TO VISIBILITY.

  * THESE STATIONS DO NOT REPORT WEATHER SUCH AS RAIN...SNOW OR FOG.

NEZ001>004-019>022-054>056-310400-
NEBRASKA PANHANDLE

CITY           SKY/WX    TMP DP  RH WIND       PRES   REMARKS
SCOTTSBLUFF    CLEAR     42  33  70 SE5       30.41R
ALLIANCE       CLEAR     34  29  82 NE9       30.41R WCI  27
CHADRON        CLEAR     34  29  82 NE7       30.43R WCI  28
KIMBALL        CLEAR     42  31  65 E9        30.38S
SIDNEY         CLEAR     39  29  67 E7        30.41R WCI  34
$$

NEZ057>060-069>072-079>082-310400-
SOUTHWEST NEBRASKA

CITY           SKY/WX    TMP DP  RH WIND       PRES   REMARKS
NORTH PLATTE   CLEAR     40  30  67 NE9       30.41R WCI  34
IMPERIAL       CLEAR     42  29  59 NE10      30.39R
LEXINGTON      CLEAR     42  33  69 N10       30.40R
MCCOOK         CLEAR     45  31  58 NE13      30.39R
OGALLALA       CLEAR     44  32  63 NE8       30.41R
$$

NEZ005>010-023>029-035>040-094-310400-
NORTH CENTRAL NEBRASKA

CITY           SKY/WX    TMP DP  RH WIND       PRES   REMARKS
VALENTINE      CLEAR     36  29  75 N10       30.46R WCI  28
AINSWORTH      CLEAR     33  29  85 N7        30.44R WCI  27
BROKEN BOW     CLEAR     39  32  76 N13       30.41R WCI  31
O`NEILL        MOCLDY    37  33  85 N18       30.44R WCI  27
ORD            CLEAR     38  32  79 N8        30.41R WCI  32
THEDFORD       CLEAR     36  31  83 CALM      30.44R
$$

NEZ041-046>049-061>064-073>077-083>087-310400-
SOUTH CENTRAL NEBRASKA

CITY           SKY/WX    TMP DP  RH WIND       PRES   REMARKS
GRAND ISLAND   CLOUDY    43  34  70 N21G30    30.39R
AURORA         CLOUDY    44  34  68 N20G32    30.37R
HASTINGS       PTCLDY    42  34  73 N17       30.37R
HEBRON         MOCLDY    45  35  68 N14G20    30.34R
HOLDREGE       CLEAR     42  32  68 N14       30.37R
KEARNEY *      CLEAR     39  32  75 N13       30.39R WCI  32
YORK           CLOUDY    45  37  76 N29G36    30.35R
$$

NEZ011>018-030>034-042>045-310400-
NORTHEAST NEBRASKA

CITY           SKY/WX    TMP DP  RH WIND       PRES   REMARKS
NORFOLK        CLOUDY    42  33  70 N17       30.38R
ALBION         MOCLDY    40  32  71 N12G18    30.39R WCI  33
BLAIR          CLOUDY    47  38  72 N20G32    30.30R
FREMONT        CLOUDY    47  38  68 N15G26    30.34R
TEKAMAH        CLOUDY    46  35  65 N28G39    30.34R
WAYNE          CLOUDY    42  32  69 N16G26    30.38R
$$

NEZ050>053-065>068-078-088>093-310400-
SOUTHEAST NEBRASKA

CITY           SKY/WX    TMP DP  RH WIND       PRES   REMARKS
LINCOLN        CLOUDY    48  39  71 N26G33    30.32R
OMAHA EPPLEY   CLOUDY    48  39  71 N25G35    30.30R
BEATRICE       PTCLDY    44  38  78 N22G28    30.30R
FALLS CITY     LGT RAIN  49  39  68 NW14G30   30.23R
NEBRASKA CITY  MOCLDY    48  37  66 N16G25    30.26R
PLATTSMOUTH    CLOUDY    49  39  68 N17G24    30.27R
$$

NEZ044-045-051>053-067-310400-
OMAHA AREA

CITY           SKY/WX    TMP DP  RH WIND       PRES   REMARKS
OMAHA EPPLEY   CLOUDY    48  39  71 N25G35    30.30R
BLAIR          CLOUDY    47  38  72 N20G32    30.30R
FREMONT        CLOUDY    47  38  68 N15G26    30.34R
MILLARD        CLOUDY    49  40  70 N9G21     30.30R
OFFUTT AFB     CLOUDY    50  40  68 N17G30    30.28R
PLATTSMOUTH    CLOUDY    49  39  68 N17G24    30.27R
WAHOO          CLOUDY    47  38  72 N17G24    30.32R
$$



USA.gov is the U.S. government's official web portal to all federal, state and local government web resources and services.